THORAD AGENA D DEB, 4742

Orbit data source: Space-Track

THORAD AGENA D DEB, 4742 is space debris in SSO originally from a launch on Wed, 08 Apr 1970 UTC launched from the Air Force Western Test Range (AFWTR). Debris objects in space refer to the collection of defunct objects orbiting the Earth. Examples of debris include non-operational satellites, rocket bodies, and fragments generated from explosions, collisions, or faulty payload assembly.

Loading next visibility...
Identifier
4742, 1970-025CR
Orbit
SSO
Country
Flag of USUS
Related business
Manufacturer
Unknown
Mission
Spacecraft
Bus & Motor
Unknown
Mass
Unknown
Launch date (UTC)
1970-04-08 (56 years ago)
Launch vehicle
Unknown
Launch site
Air Force Western Test Range (AFWTR)
Object type
Payload
Rocket body
Debris
Shape & HBR
Unknown shape, 0.2 m
Radar Cross Section
Medium (>0.1 m² and <1 m²)

Expand to show TLE details & history
Last TLE update: 13 hours ago

TLE from 13 hours ago
0 THORAD AGENA D DEB
1 04742U 70025CR  26169.17258465  .00000074  00000-0  17569-3 0  9995
2 04742 100.0114 238.5032 0020456 128.4904 257.6466 13.54400604770157
Epoch: 2026-06-18T04:08Z
TLE epoch observation values (Epoch: 2026-06-18T04:08:31.313Z)
Latitude
25.51656°
Longitude
-94.85578°
Altitude
1,062.369 km
Speed
7.321 km/s
True Right ascension
15h 34m 46s
True Declination
25° 23' 19"
Sunlit
Object was in full shadow at epoch
Visualization orbit readout
Latitude
Unknown
Longitude
Unknown
Altitude
Unknown
Speed
Unknown
Apparent Right ascension
Unknown
Apparent Declination
Unknown
Sunlit
N/A
Visualization observer readout
Local Sidereal Time
04:15:18
Azimuth
Unknown
Elevation
Unknown
Doppler factor
Unknown
Orbital elements
Apogee altitude
1,068.625 km
Perigee altitude
1,038.221 km
Semi-major axis
7,431.56 km
Eccentricity
0.00205
Inclination
100.0114°
RAAN
238.5032°
Arg. of periapsis
128.4904°
True anomaly
257.41774°
Mean anomaly
257.6466°
Eccentric anomaly
257.53216°
Mean motion
3.38784 °/min
Orbital period
106.26 mins
BSTAR
0.00017569
Loading maneuver chart data...
Computing Atmospheric mass density...

Documentation

Showing up to 5 results
|